Zurück zum Katalog

SL-12 R/B(2)

AktivGEO
NORAD 29233·ROCKET BODY·🇷🇺 Russia

Gestartet Jun 17, 2006 von Baikonur Cosmodrome

Loading…

TLE

AktuellSource: Space-Track

Epoche: Sep 14, 2026, 13:22 UTC

1 29233U 06022D   26257.55746274  .00000004  00000-0  00000-0 0  9995
2 29233  12.6188  21.7994 0050663  44.1635 346.4256  1.01010297 74677

Verfolge SL-12 R/B(2) in Echtzeit mit AllMySat

Download on the App Store